sat.trackr.live / text

‹ back to catalog

BANDWAGON-2 OBJECT AE

NORAD 62405 · 2024-247AE

PAYLOAD ACTIVE UNKNOWN

§ Identity

Operator
Country
TBD
Launch date
2024-12-21
Launch site
AFWTR
Launch vehicle
Mass (kg)
RCS (m²)

External: N2YO · Heavens-Above · Gunter

§ Orbital elements

Epoch: 2026-05-24T08:14:15.755424Z

Period
92.42 min
Inclination
44.9765°
Eccentricity
0.0008756
Mean motion
15.58097021 rev/d
Perigee alt
387.2 km
Apogee alt
399.1 km
Semi-major
6,771.3 km
B*
7.3872e-4
RAAN
13.7492°
Arg perigee
195.0921°
Mean anomaly
164.9713°
Rev number
7,930

§ Raw data

BANDWAGON-2 OBJECT AE1 62405U 24247AE  26144.34323791  .00057058  00000+0  73872-3 0  99992 62405  44.9765  13.7492 0008756 195.0921 164.9713 15.58097021 79301

JSON: /api/v1/satellites/62405 · /tle

For live sub-satellite position, see the globe view (requires WebGL).

§ Visibility from observer

Set your observer location to see the next 7 days of passes ≥ 10°. The values pass through the URL so the page stays shareable.

No JS? Fill the form by hand. The geolocation button needs JavaScript.